User: anonymous   Login
Location: Langangen
(59.1000°N, 9.8000°E)
Time: 01:15:20
(UTC+01:00)
Language:

Iridium 60 - Orbit

View from above orbital plane
View from above orbital plane
View from above satellite
View from above satellite

Ground track
Ground track

The orbit data is extracted from the following two-line orbital elements,

1 25276U 98019E   14353.42425306  .00000740  00000-0  25704-3 0   893
2 25276 086.3970 307.7067 0002222 101.5895 258.5550 14.34226421875520
Epoch (UTC): 19 December 2014 10:10:55
Eccentricity: 0.0002222
inclination: 86.3970°
perigee height: 776 km
apogee height: 779 km
right ascension of ascending node: 307.7067°
argument of perigee: 101.5895°
revolutions per day: 14.34226421
mean anomaly at epoch: 258.5550°
orbit number at epoch: 87552

The dashed part of the orbit path shows where the satellite is in the earth's shadow,  

DLR